Weather History for Lakeville, MN

Change the Weather History Date:

Wednesday, October 19, 2011

  Actual Average Record
Temperature  
Mean Temperature 42 °F -  
Max Temperature 46 °F 56 °F 84 °F (2000)
Min Temperature 37 °F 33 °F 12 °F (1972)
Degree Days  
Heating Degree Days 24    
Moisture  
Dew Point 31 °F    
Average Humidity 70    
Maximum Humidity 81    
Minimum Humidity 53    
Precipitation  
Precipitation 0.00 in - - ()
Sea Level Pressure  
Sea Level Pressure 30.06 in    
Wind  
Wind Speed 9 mph (North)    
Max Wind Speed 15 mph    
Max Gust Speed 20 mph    
Visibility 10 miles    
Events      
Averages and records for this station are not official NWS values.
T = Trace of Precipitation, MM = Missing Value Source: NWS Daily Summary

Daily Weather History Graph

Daily Weather History Graph

Search for Another Location

Airport:

Trip Planner

Search our weather history database for the weather conditions in past years. The results will help you decide how hot, cold, wet, or windy it might be!

Date:

Astronomy

Oct. 19, 2011 Rise Set
Actual Time 7:33 AM CDT 6:22 PM CDT
Civil Twilight 7:03 AM CDT 6:51 PM CDT
Nautical Twilight 6:29 AM CDT 7:25 PM CDT
Astronomical Twilight 5:55 AM CDT 7:59 PM CDT
Moon No Moon Rise 2:10 PM CDT (10/19)
Length of Visible Light 11h 48m
Length of Day
10h 49m
Waning Gibbous, 54% of the Moon is Illuminated
Oct 19
Waning Gibbous
Oct 19
Last Quarter
Oct 26
New
Nov 2
First Quarter
Nov 10
Full

Hourly Weather History & Observations

Time (CDT) Temp. Windchill Dew Point Humidity Pressure Visibility Wind Dir Wind Speed Gust Speed Precip Events Conditions
12:13 AM 39.2 °F 33.6 °F 30.2 °F 70% 30.03 in 10.0 mi North 8.1 mph - N/A   Overcast
12:32 AM 39.2 °F 33.0 °F 30.2 °F 70% 30.03 in 10.0 mi North 9.2 mph - N/A   Overcast
12:53 AM 39.2 °F 33.6 °F 32.0 °F 75% 30.03 in 10.0 mi North 8.1 mph - N/A   Overcast
1:12 AM 39.2 °F 33.0 °F 32.0 °F 75% 30.03 in 10.0 mi North 9.2 mph - N/A   Overcast
2:12 AM 39.2 °F 33.6 °F 32.0 °F 75% 30.03 in 10.0 mi North 8.1 mph - N/A   Overcast
2:33 AM 39.2 °F 33.6 °F 32.0 °F 75% 30.04 in 10.0 mi NNE 8.1 mph - N/A   Overcast
2:52 AM 37.4 °F 31.4 °F 32.0 °F 81% 30.03 in 10.0 mi North 8.1 mph - N/A   Overcast
3:12 AM 37.4 °F 30.8 °F 30.2 °F 75% 30.03 in 10.0 mi North 9.2 mph - N/A   Overcast
3:33 AM 37.4 °F 31.4 °F 30.2 °F 75% 30.03 in 10.0 mi NNE 8.1 mph - N/A   Overcast
3:52 AM 37.4 °F 32.1 °F 30.2 °F 75% 30.03 in 10.0 mi North 6.9 mph - N/A   Overcast
4:12 AM 37.4 °F 32.1 °F 30.2 °F 75% 30.03 in 10.0 mi North 6.9 mph - N/A   Overcast
4:33 AM 37.4 °F 31.4 °F 30.2 °F 75% 30.04 in 10.0 mi North 8.1 mph - N/A   Overcast
5:12 AM 37.4 °F 30.8 °F 30.2 °F 75% 30.04 in 10.0 mi NNE 9.2 mph - N/A   Overcast
5:33 AM 37.4 °F 32.1 °F 30.2 °F 75% 30.05 in 10.0 mi North 6.9 mph - N/A   Overcast
5:52 AM 37.4 °F 32.8 °F 30.2 °F 75% 30.05 in 10.0 mi North 5.8 mph - N/A   Overcast
6:33 AM 37.4 °F 32.1 °F 30.2 °F 75% 30.06 in 10.0 mi North 6.9 mph - N/A   Overcast
6:52 AM 37.4 °F 32.1 °F 30.2 °F 75% 30.06 in 10.0 mi North 6.9 mph - N/A   Overcast
7:33 AM 37.4 °F 31.4 °F 30.2 °F 75% 30.07 in 10.0 mi North 8.1 mph - N/A   Overcast
7:53 AM 37.4 °F 32.1 °F 32.0 °F 81% 30.08 in 10.0 mi North 6.9 mph - N/A   Overcast
8:12 AM 37.4 °F 31.4 °F 32.0 °F 81% 30.08 in 10.0 mi North 8.1 mph - N/A   Overcast
8:33 AM 37.4 °F 30.8 °F 32.0 °F 81% 30.09 in 10.0 mi North 9.2 mph - N/A   Overcast
8:52 AM 37.4 °F 30.3 °F 32.0 °F 81% 30.09 in 10.0 mi NNW 10.4 mph - N/A   Overcast
9:13 AM 37.4 °F 30.8 °F 32.0 °F 81% 30.09 in 10.0 mi North 9.2 mph - N/A   Overcast
9:32 AM 39.2 °F 32.5 °F 33.8 °F 81% 30.10 in 10.0 mi North 10.4 mph - N/A   Overcast
9:53 AM 39.2 °F 33.0 °F 33.8 °F 81% 30.09 in 10.0 mi North 9.2 mph 17.3 mph N/A   Overcast
10:13 AM 39.2 °F 33.0 °F 33.8 °F 81% 30.09 in 10.0 mi North 9.2 mph 16.1 mph N/A   Overcast
10:32 AM 39.2 °F 33.0 °F 33.8 °F 81% 30.10 in 10.0 mi North 9.2 mph - N/A   Overcast
11:13 AM 41.0 °F 34.3 °F 33.8 °F 76% 30.09 in 10.0 mi North 11.5 mph - N/A   Overcast
11:53 AM 42.8 °F 37.0 °F 33.8 °F 70% 30.09 in 10.0 mi North 10.4 mph - N/A   Overcast
12:13 PM 42.8 °F 35.4 °F 33.8 °F 70% 30.09 in 10.0 mi North 15.0 mph 18.4 mph N/A   Overcast
12:32 PM 42.8 °F 36.2 °F 33.8 °F 70% 30.09 in 10.0 mi NNE 12.7 mph 17.3 mph N/A   Overcast
12:53 PM 42.8 °F 36.6 °F 33.8 °F 70% 30.09 in 10.0 mi NNE 11.5 mph 16.1 mph N/A   Overcast
1:13 PM 41.0 °F 33.5 °F 33.8 °F 76% 30.09 in 10.0 mi NNE 13.8 mph 17.3 mph N/A   Overcast
1:32 PM 41.0 °F 35.2 °F 32.0 °F 70% 30.08 in 10.0 mi North 9.2 mph - N/A   Overcast
1:53 PM 41.0 °F 34.3 °F 32.0 °F 70% 30.08 in 10.0 mi North 11.5 mph 18.4 mph N/A   Overcast
2:13 PM 42.8 °F 37.0 °F 33.8 °F 70% 30.07 in 10.0 mi NNW 10.4 mph 16.1 mph N/A   Overcast
2:52 PM 42.8 °F 36.2 °F 32.0 °F 66% 30.06 in 10.0 mi NNW 12.7 mph 16.1 mph N/A   Overcast
3:12 PM 42.8 °F 36.6 °F 32.0 °F 66% 30.05 in 10.0 mi NNW 11.5 mph - N/A   Overcast
3:53 PM 44.6 °F 38.8 °F 32.0 °F 61% 30.05 in 10.0 mi North 11.5 mph 19.6 mph N/A   Mostly Cloudy
4:12 PM 44.6 °F 39.2 °F 32.0 °F 61% 30.04 in 10.0 mi NNW 10.4 mph - N/A   Scattered Clouds
4:33 PM 44.6 °F 38.8 °F 32.0 °F 61% 30.04 in 10.0 mi NNW 11.5 mph - N/A   Scattered Clouds
4:52 PM 44.6 °F 38.4 °F 30.2 °F 57% 30.04 in 10.0 mi North 12.7 mph 19.6 mph N/A   Scattered Clouds
5:12 PM 46.4 °F 41.1 °F 30.2 °F 53% 30.04 in 10.0 mi North 11.5 mph 18.4 mph N/A   Mostly Cloudy
5:33 PM 44.6 °F 39.2 °F 30.2 °F 57% 30.04 in 10.0 mi North 10.4 mph 17.3 mph N/A   Overcast
5:53 PM 44.6 °F 38.8 °F 28.4 °F 53% 30.04 in 10.0 mi North 11.5 mph - N/A   Overcast
6:12 PM 44.6 °F 40.7 °F 28.4 °F 53% 30.04 in 10.0 mi North 6.9 mph 18.4 mph N/A   Overcast
6:33 PM 42.8 °F 37.0 °F 30.2 °F 61% 30.05 in 10.0 mi North 10.4 mph 17.3 mph N/A   Mostly Cloudy
6:53 PM 42.8 °F 37.5 °F 30.2 °F 61% 30.05 in 10.0 mi North 9.2 mph - N/A   Mostly Cloudy
7:12 PM 42.8 °F 38.0 °F 30.2 °F 61% 30.05 in 10.0 mi North 8.1 mph - N/A   Mostly Cloudy
7:33 PM 42.8 °F 37.0 °F 28.4 °F 57% 30.05 in 10.0 mi North 10.4 mph 16.1 mph N/A   Overcast
7:52 PM 41.0 °F 35.8 °F 28.4 °F 61% 30.05 in 10.0 mi North 8.1 mph - N/A   Scattered Clouds
8:13 PM 41.0 °F 36.4 °F 28.4 °F 61% 30.05 in 10.0 mi North 6.9 mph - N/A   Mostly Cloudy
8:33 PM 39.2 °F 35.0 °F 28.4 °F 65% 30.05 in 10.0 mi North 5.8 mph - N/A   Mostly Cloudy
8:52 PM 39.2 °F 33.0 °F 28.4 °F 65% 30.05 in 10.0 mi North 9.2 mph - N/A   Scattered Clouds
9:13 PM 39.2 °F 33.6 °F 28.4 °F 65% 30.04 in 10.0 mi North 8.1 mph - N/A   Clear
9:33 PM 37.4 °F 31.4 °F 28.4 °F 70% 30.04 in 10.0 mi North 8.1 mph - N/A   Clear
9:52 PM 37.4 °F 31.4 °F 30.2 °F 75% 30.04 in 10.0 mi North 8.1 mph - N/A   Clear
10:12 PM 37.4 °F 31.4 °F 30.2 °F 75% 30.04 in 10.0 mi North 8.1 mph - N/A   Clear
10:33 PM 37.4 °F 31.4 °F 30.2 °F 75% 30.03 in 10.0 mi NNW 8.1 mph - N/A   Clear
10:52 PM 37.4 °F 32.1 °F 30.2 °F 75% 30.03 in 10.0 mi North 6.9 mph - N/A   Clear
11:12 PM 37.4 °F 30.3 °F 30.2 °F 75% 30.02 in 10.0 mi North 10.4 mph - N/A   Clear
11:33 PM 37.4 °F 29.8 °F 30.2 °F 75% 30.01 in 10.0 mi NNW 11.5 mph 16.1 mph N/A   Clear
11:52 PM 37.4 °F 30.8 °F 30.2 °F 75% 30.01 in 10.0 mi NNW 9.2 mph - N/A   Clear